FENGYUN 1C DEB

Satellite information

Favourite Embed

Satellite Type and Status

DEBRISIN ORBIT

Key statistics

Satellite FENGYUN 1C DEB at a glance.

Uptime

9659

Days in orbit

Revolutions

≈ 14.4

Per day

Orbit

SSO

Sun Synchronous Orbit

Inclination

98.9

Latest

Satellite identification and parameters

Extended collection of information and parameters for FENGYUN 1C DEB.

Object identification

Identified? True

Debris? True

Object name: FENGYUN 1C DEB

International designator: 1999-025AKM

Object number (NORAD): 30547

Object ID (CCSDS): 30547

Country: PEOPLES REPUBLIC OF CHINA (PRC)

Current information (Y/N): Y

RCS size: SMALL

Orbital parameters

Period: 100.166 minutes

Inclination: 98.9082 deg

SMA: 7144.532 km

Apoapsis: 835.369 km

Periapsis: 697.426 km

RAAN: 132.8212 deg

Eccentricy: 0.00965377

Argument of periapsis: 20.2849 deg

Mean anomaly: 354.6365 deg

Mean motion: 14.37613225 rev/day

Mean motion (dot): 0.00000914 rev/day2

B* drag term: 0.00030416135 1/REarth

Two-line elements (TLE)

Creation date: Oct. 19, 2025, 2:20 a.m.

Reference frame: TEME

Reference center: EARTH

Epoch: Oct. 18, 2025, 7:12 p.m. UTC

TLE line 0: 0 FENGYUN 1C DEB

TLE line 1: 1 30547U 99025AKM 25291.80016697 .00000914 00000-0 30416-3 0 9991

TLE line 2: 2 30547 98.9082 132.8212 0096538 20.2849 354.6365 14.37613225979339

Live tracking on map

Real-time ground track for satellite FENGYUN 1C DEB.

In-orbit conjunctions

A list of the most updated potential collisions computed for object FENGYUN 1C DEB.

Target Orbit TCA Probability of collision Miss distance Type
COSMOS 2251 DEB LEO 2025-08-02 00:01:40 0.0001274102 153.0 (m) DEBRIS
CZ-6A DEB SSO 2025-07-18 21:05:10 0.000166736 127.0 (m) DEBRIS
SARA SSO 2025-05-15 01:36:23 0.0001205042 227.0 (m) PAYLOAD

Associated space launch

Chinese polar orbiting meteorological satellite

FENGYUN 1C DEB was lifted into orbit during the mission ‘Long March 4B | Feng Yun 1C’, on board a Long March 4B space rocket.

The launch took place on May 10, 1999, 1:33 a.m. from Launch Complex 7.

For more information about the launch, click the button.

Launch to space Long March 4B | Feng Yun 1C
Long March 4B | Feng Yun 1C

Agency: N/A

Status: Launch Successful

Launch date: May 10, 1999, 1:33 a.m. UTC

Rocket: Long March 4B

Launch pad: Launch Complex 7

Location: Taiyuan Satellite Launch Center, People's Republic of China

...

Latest news about this satellite

There are no fresh news available about this satellite. Check back as we update our databases every day.


Newsletter sign-up

Weekly statistics, charts and insights to help you stay on top of the space industry.